LEGION 2

Last updated on Fri Oct 04 2024 00:02:26 GMT+0000 (Coordinated Universal Time)

1 59626U 24081B 24277.50677803 .00016523 00000+0 84088-3 0 9998 2 59626 97.5664 348.5287 0004002 49.5206 310.6376 15.16889667 23307
UTC large
Height (km)
Speed (km/s)
/
Latitude / Longitude
Inclination (degrees)
Orbital Period (minutes)
Azimuth
Elevation
Range (km)
Doppler Factor

Next 0 passes for location: London (51.5072 / 0.1276)

Sorry there are no passes over London.